Погода в Комрате

Погода в Комрате : погода сейчас, прогноз погоды и архив. Всё, что Вы хотите узнать о погоде в Комрате!

Поиск расширенной информации на нашем сайте:

Другие новости

Новости СМИ2

Главная страница сайта

Новости сайта

02.10.2013

Напоминаем, что на нашем новом сайте вы можете получить высокодетализированные прогнозы погоды по пунктам России, СНГ и мира (включающие важные для авиации метеовеличины, такие как направление и скорость ветра, видимость, явления погоды, количество и форма облачности, нижняя и верхняя граница облачности), а также ознакомиться с разнообразными материалами по авиационной метеорологии и подборкой полезных ссылок на эту тему.

Сайт Метеоцентр.Азия посвящён разработке технологий оптимизации авиаметеорологического обслуживания, включая проектирование и перспективное создание нескольких автоматизированных авиаметеорологических систем:
- система выпуска высокодетальных прогностических карт явлений погоды для нижнего воздушного пространства по России и ближнему зарубежью;
- система верификации прогнозов TAF (выпускаемых синоптиками официальных АМСГ РФ и ближнего зарубежья) и AUTOTAF (выпускаемых сайтом Метеоцентр.Азия) - выявление ошибок, онлайн-сопоставление с фактической погодой METAR, автоматическое внесение коррективов в прогнозы при резком отклонении фактической погоды от прогноза, подсчёт оправдываемости прогнозов по элементам и в целом;
- система обработки, анализа и отображения авиаметеорологической информации для применения провайдерами метеорологической информации.


Погода в Комрате - сегодня

Время (UTC), дата Ветер
(°,м/с) 
Видим.   Явления Облачность Т
(°С)
Тd
(°С)
f(%) Тe
(°С)
Pmin
(гПа)
dP
(гПа)
Po
(мм)
O2
(г/м3)
Тmin Tmax R s Состояние
почвы
03 19.01.17 010 (С) 10 км    10/0 средняя 
[As op]
-7 -9.4 83 -11  1038.9  0.4  766  318           
06 19.01.17 010 (С) 10 км    10/0 средняя 
[As op]
-7.4 -9.5 85 -11  1039.6  0.6  766  318  -7.5      мокрый или
старый снег
50-90% 
09 19.01.17 020 (С) 20000 м    10/0 средняя 
[As op]
-6.6 -9.3 81 -8  1040.3  0.8  767  318           
12 19.01.17 010 (С) 20000 м    8/8 600 м 
[Sc]
-5.8 -9.2 77 -8  1039  -1.3  766  316           
15 19.01.17 320 (СЗ) 20000 м    ясно 
-6.9 -9.8 80 -8  1038.7  -0.3  766  317           
18 19.01.17 340 (С) 10 км    ясно 
-8.7 -10.8 85 -10  1038.8  766  320    -5.1       
21 19.01.17 350 (С) 10 км    ясно 
-9.3 -10.9 88 -11  1038.9  766  320           
00 20.01.17 340 (С) 10 км    ясно 
-10.5 -11.5 92 -12  1038.4  -0.6  765  322           
03 20.01.17 270 (З) 10 км    ясно 
-11.1 -12.1 92 -11  1037.4  -1  764  322           
06 20.01.17 тихо ()   1000 м  дымка  ясно 
-16 -17.7 87 -16  1037.5  -0.2  764  329  -16.1      мокрый или
старый снег
50-90% 
09 20.01.17 160 (Ю) 1000 м  дымка{туман}  ясно 
-10.5 -12 89 -10  1036.8  -0.3  764  321           
12 20.01.17 230 (ЮЗ) 10 км  {туман}  ясно 
-3.9 -8.2 72 -5  1034.3  -2  763  313           
15 20.01.17 260 (З) 10 км    ясно 
-5.5 -8.7 78 -5  1033.1  -1.3  762  314           
18 20.01.17 250 (З) 10 км    10/0 средняя 
[Ac As]
-6.2 -9.4 78 -6  1032.7  -0.5  761  315    -3.4       
21 20.01.17 тихо ()   10 км    10/0 средняя 
[Ac As]
-5.4 -8.6 78 -5  1032.2  -0.4  761  314           
00 21.01.17 тихо ()   10 км    8/0 средняя 
[Ac trans]
-3.5 -9.9 61 -4  1030.7  -1.4  760  311           
03 21.01.17 тихо ()   10 км    10/10 600 м 
[Sc]
-3.4 -8.6 67 -3  1029.6  -1  759  311           
06 21.01.17 250 (З) 10 км    10/0 средняя 
[As op]
-2.9 -7.1 73 -4  1029.1  -0.5  759  310  -6.2      мокрый или
старый снег
50-90% 
09 21.01.17 280 (З) 10 км    10/0 средняя 
[As op]
-0.4 -4.3 75 -3  1029.3  0.4  759  307           
12 21.01.17 260 (З) 4000 м  дымка{снег}  10/10 600 м 
[St]
-1 -2.1 92 -3  1028.4  -0.9  758  307           
15 21.01.17 280 (З) 4000 м  дымка  10/10 600 м 
[St]
-0.1 -2.2 86 -1  1028.6  0.2  758  306           
18 21.01.17 320 (СЗ) 10 км    10/0 средняя 
[As op]
+1.1 -0.8 87 -2  1029.2  0.7  759  305    +1.2  0.3     
21 21.01.17 320 (СЗ) 10 км    10/0 средняя 
[As op]
+1.3 -0.6 87 -1  1031  1.8  760  305           
00 22.01.17 310 (СЗ) 10 км    10/0 средняя 
[As op]
+1.1 -0.1 92 -1  1032  0.9  761  305           
03 22.01.17 320 (СЗ) 10 км    10/0 средняя 
[As op]
+0.9 -0.3 92 -1  1032.6  0.6  761  306           
Время (UTC), дата Ветер
(°,м/с) 
Видим.   Явления Облачность Т
(°С)
Тd
(°С)
f(%) Тe
(°С)
Pmin
(гПа)
dP
(гПа)
Po
(мм)
O2
(г/м3)
Тmin Tmax R s Состояние
почвы

Для получения пояснительной информации подведите курсор к названию столбца.

ПОГОДА в Комрате - архив

Всё, что Вы хотите узнать о погоде в Комрате - удобно и подробно!

Выберите нужную дату (начиная с 1 января 2015* года) и нажмите кнопку "Найти".
Будут отображены архивные сводки погоды по пункту Комрат, начиная с указанной даты.


Отображать данные в формате CSV (для использования в таблицах Excel)


Внимание! Наш архив погоды предназначен исключительно для личного некоммерческого использования в познавательных целях. Если Вам необходимы официальные справки о состоянии погоды (для производственных, юридических, коммерческих и т.п. целей), обращайтесь в органы Росгидромета.

*Примечание: данная дата относится к архиву по метеостанциям СССР (Россия, СНГ, Балтия).
Архив по метеостанциям Зарубежной Европы и Азии (кроме Китая) хранится 10 дней, по другим регионам земного шара (Китай, Африка, Америка, Австралия, Океания) - 1 день.

Комрат - район местоположения метеостанции


Название, широта, долгота, высота метеостанции:
Комрат 46.3°ш. 28.6°д. 133 м над ур. моря [Молдавия]

Дополнительная информация

В oтличие oт бoльшинства пoгoдных сайтoв мы публикуем пoдрoбную метеoинфoрмацию в детальнoм прoфессиoнальнoм фoрмате.

Характеристики температуры и влажнoсти вoздуха измеряются на высoте 2 м в тени вдали oт зданий и деревьев.
Скoрoсть ветра измеряется на высoте 10 м (на урoвне рoста челoвека скoрoсть ветра ниже в 1.5-2 раза). Если метеoстанция нахoдится в гoрoде или в лесу, тo скoрoсть ветра занижена на 2-4 м/с пo сравнению с oткрытым местoм. Скoрoсть ветра над акватoриями крупных рек и oзёр, а также на вершинах хoлмoв на 2-5 м/с выше, чем в oбычных услoвиях.
Атмoсфернoе давление в разных тoчках местнoсти мoжет значительнo oтличаться oт давления на метеoстанции, в зависимoсти oт услoвий рельефа (при пoдъёме на 10 м давление пoнижается примернo на 1 мм рт.ст.).